Regional Weather Roundup
Issued by NWS

Home | Current Version | Previous Version | Text Only | Print | Product List | Glossary On
Versions: 1 2 3 4 5 6 7 8 9 10 11 12 13 14 15 16 17 18 19 20 21 22 23 24 25 26 27 28 29 30 31 32 33 34 35 36 37 38 39 40 41 42 43 44 45 46 47 48 49 50
000
ASUS44 KLIX 130710
RWRLA
LOUISIANA WEATHER ROUNDUP
NATIONAL WEATHER SERVICE NEW ORLEANS LA
100 AM CST SAT FEB 13 2016

NOTE: "FAIR" INDICATES FEW OR NO CLOUDS BELOW 12,000 FEET WITH NO
      SIGNIFICANT WEATHER AND/OR OBSTRUCTIONS TO VISIBILITY.
      SKY/WX - SKY CONDITION AND SIGNIFICANT WEATHER.
      TMP - AIR TEMPERATURE.    DP   - DEWPOINT TEMPERATURE.
      RH  - RELATIVE HUMIDITY.  PRES - PRESSURE.
      HX  - HEAT INDEX.         WCI  - WIND CHILL INDEX.

*  THESE STATIONS ARE NOT NWS OR FAA STATIONS AND ARE NOT UNDER
   NWS QUALITY CONTROL.

LAZ040-048-061>063-065-066-069-130800-
SOUTHEAST LOUISIANA

CITY           SKY/WX    TMP DP  RH WIND       PRES   REMARKS
N.O. AUDUBON     N/A     58  43  57 MISG        N/A
N.O. INTL ARPT PTCLDY    56  43  61 NE6       30.30R
N.O. LAKEFRONT PTCLDY    55  47  74 N8        30.30S
N.O. DOWNTOWN* NOT AVBL
RESERVE*       PTSUNNY   58  42  54 N8        30.30S
SLIDELL        PTCLDY    54  38  54 N12       30.29S
BATON ROUGE    PTCLDY    53  37  54 NE6       30.30S
BOOTHVILLE     PTCLDY    58  50  75 VRB5      30.28S
BELLE CHASSE   PTCLDY    58  41  53 N9        30.29R
BOGALUSA*        N/A     53  35  51 NE6       30.33S
GALLIANO*      SUNNY     57  55  92 N3        30.29S
NEW ROADS*     FAIR      53  38  57 NE7       30.31S
GONZALES*      FAIR      57  39  50 NE3       30.29S
HAMMOND*       PTCLDY    54  32  43 NE3       30.30S
HOUMA*         FOG       51  51 100 CALM      30.29S VSB 1/2
PORT FOURCHON* SUNNY     59  59 100 NW6       30.29S

$$

LAZ041-044-053-054-130800-
SOUTHWEST LOUISIANA

CITY           SKY/WX    TMP DP  RH WIND       PRES   REMARKS
LAKE CHARLES   CLEAR     55  51  86 NE6       30.29R
LAFAYETTE      PTCLDY    59  42  53 NE5       30.29F
PATTERSON        N/A     54  52  94 NE6       30.30S VSB 1/2
SALT POINT       N/A     59  58  96 CALM      30.27F
NEW IBERIA     PTCLDY    58  46  64 NE9       30.29F
CHENAULT AIRPK PTCLDY    56  49  77 NE5       30.29S

$$

LAZ027-028-130800-
CENTRAL LOUISIANA

CITY           SKY/WX    TMP DP  RH WIND       PRES   REMARKS
FORT POLK      PTCLDY    48  43  84 NE5       30.30S
ALEXANDRIA INT PTCLDY    52  37  56 NE8       30.31R
ALEXANDRIA     PTCLDY    53  37  54 VRB3      30.33R

$$

LAZ001-002-130800-
NORTHWEST LOUISIANA

CITY           SKY/WX    TMP DP  RH WIND       PRES   REMARKS
SHREVEPORT     PTCLDY    50  35  56 E6        30.35R
BARKSDALE AFB  PTCLDY    49  34  57 CALM      30.35R
DTN SHREVEPORT PTCLDY    50  35  56 NE3       30.35S

$$

LAZ014-016-130800-
NORTHEAST LOUISIANA

CITY           SKY/WX    TMP DP  RH WIND       PRES   REMARKS
MONROE         PTCLDY    45  34  65 NE8       30.39R
TALLULAH       PTCLDY    47  34  60 NE6       30.38R

$$





USA.gov is the U.S. government's official web portal to all federal, state and local government web resources and services.